Regional Weather Roundup
Issued by NWS Sioux Falls, SD

Home | Current Version | Previous Version | Text Only | Print | Product List | Glossary On
Versions: 1 2 3 4 5 6 7 8 9 10 11 12 13 14 15 16 17 18 19 20 21 22 23 24 25 26 27 28 29 30 31 32 33 34 35 36 37 38 39 40 41 42 43 44 45 46 47 48 49 50
000
ASUS43 KFSD 290702
RWRFSD

WEATHER ROUNDUP FOR SE SOUTH DAKOTA/SW MINNESOTA/NW IOWA
NATIONAL WEATHER SERVICE SIOUX FALLS SD
200 AM CDT FRI MAY 29 2015

NOTE: "FAIR" INDICATES FEW OR NO CLOUDS BELOW 12,000 FEET WITH NO
SIGNIFICANT WEATHER AND OR OBSTRUCTIONS TO VISIBILITY.


SDZ038>040-050-052>070-290800-
SOUTHEAST SOUTH DAKOTA

CITY           SKY/WX    TMP DP  RH WIND       PRES   REMARKS
BROOKINGS      MOCLDY    63  57  82 S5        29.86F
CHAMBERLAIN    CLOUDY    60  57  92 NW8       29.87F
HURON            N/A    N/A N/A N/A MISG      29.83S
MADISON        PTSUNNY   63  63 100 S8        29.86F
MITCHELL       LGT RAIN  65  60  84 SW7       29.84F
SIOUX FALLS    MOCLDY    66  63  90 S10       29.85F
WINNER         FAIR      60  55  83 W9        29.89F
YANKTON        CLOUDY    66  63  88 S9        29.85R
$$

MNZ071-072-080-081-089-090-097-098-290800-
SOUTHWEST MINNESOTA

CITY           SKY/WX    TMP DP  RH WIND       PRES   REMARKS
FAIRMONT       CLOUDY    66  59  77 S10       29.90F
JACKSON        MOCLDY    66  63  88 S9        29.90F
LUVERNE        PTCLDY    64  61  88 S7        29.87F
MARSHALL       PTCLDY    64  57  77 S10       29.84F
MONTEVIDEO     CLOUDY    66  59  77 NE8       29.89S
PIPESTONE      MOCLDY    64  61  88 S6        29.87F
REDWOOD FALLS  MOCLDY    65  61  87 S12       29.85F
TRACY          PTCLDY    65  62  91 S13       29.85F
WINDOM         MOCLDY    66  61  82 S9        29.88F
WORTHINGTON    MOCLDY    63  57  82 S17G32    29.92R THUNDER
$$

IAZ001>003-012>014-020>022-031-032-NEZ013-014-SDZ071-290800-
NORTHWEST IOWA

CITY           SKY/WX    TMP DP  RH WIND       PRES   REMARKS
DENISON        MOCLDY    66  66 100 S14G24    29.90S
ESTHERVILLE    CLOUDY    65  63  93 S13       29.90F
SIOUX CITY     MOCLDY    67  62  84 SE7       29.88S
SPENCER        MOCLDY    65  62  90 S10       29.90F
$$

ABBREVIATIONS USED IN REMARKS
   TC - TEMPERATURE IN CELSIUS
  WCI - WIND CHILL INDEX
   HX - HEAT INDEX
  VSB - VISIBILITY



USA.gov is the U.S. government's official web portal to all federal, state and local government web resources and services.